COSMOS 2251 DEB

Satellite information

Favourite Embed

Satellite Type and Status

DEBRISIN ORBIT

Key statistics

Satellite COSMOS 2251 DEB at a glance.

Uptime

11709

Days in orbit

Revolutions

≈ 14.4

Per day

Orbit

LEO

Low Earth Orbit

Inclination

74.0

Latest

Satellite identification and parameters

Extended collection of information and parameters for COSMOS 2251 DEB.

Object identification

Identified? True

Debris? True

Object name: COSMOS 2251 DEB

International designator: 1993-036H

Object number (NORAD): 33760

Object ID (CCSDS): 33760

Country: COMMONWEALTH OF INDEPENDENT STATES (CIS)

Current information (Y/N): Y

RCS size: MEDIUM

Orbital parameters

Period: 100.31 minutes

Inclination: 74.0299 deg

SMA: 7151.382 km

Apoapsis: 788.106 km

Periapsis: 758.388 km

RAAN: 213.5767 deg

Eccentricy: 0.0020778

Argument of periapsis: 350.4136 deg

Mean anomaly: 131.6739 deg

Mean motion: 14.35548231 rev/day

Mean motion (dot): 0.00000167 rev/day2

B* drag term: 0.000066982 1/REarth

Two-line elements (TLE)

Creation date: July 6, 2025, 6:05 p.m.

Reference frame: TEME

Reference center: EARTH

Epoch: July 6, 2025, 1:15 p.m. UTC

TLE line 0: 0 COSMOS 2251 DEB

TLE line 1: 1 33760U 93036H 25187.55218247 .00000167 00000-0 66982-4 0 9996

TLE line 2: 2 33760 74.0299 213.5767 0020778 350.4136 131.6739 14.35548231858400

Live tracking on map

Real-time ground track for satellite COSMOS 2251 DEB.

In-orbit conjunctions

A list of the most updated potential collisions computed for object COSMOS 2251 DEB.

Target Orbit TCA Probability of collision Miss distance Type
FENGYUN 1C DEB SSO 2024-11-17 13:34:05 0.0001616888 904.0 (m) DEBRIS
COSMOS 1125 LEO 2024-10-17 21:48:24 0.001418121 56.0 (m) PAYLOAD
IRIDIUM 33 DEB LEO 2024-06-15 11:32:56 0.0001091712 732.0 (m) DEBRIS

Associated space launch

Military communications satellite. Destroyed in a collision with Iridium 33.

COSMOS 2251 DEB was lifted into orbit during the mission ‘Kosmos-3M | Strela-2M 51’, on board a Kosmos-3M space rocket.

The launch took place on June 16, 1993, 4:17 a.m. from 132/1 (132L).

For more information about the launch, click the button.

Launch to space Kosmos-3M | Strela-2M 51
Kosmos-3M | Strela-2M 51

Agency: N/A

Status: Launch Successful

Launch date: June 16, 1993, 4:17 a.m. UTC

Rocket: Kosmos-3M

Launch pad: 132/1 (132L)

Location: Plesetsk Cosmodrome, Russian Federation

...

Latest news about this satellite

There are no fresh news available about this satellite. Check back as we update our databases every day.


Newsletter sign-up

Weekly statistics, charts and insights to help you stay on top of the space industry.